• In Österreich
  • Länderverzeichnis
  • Für 7 Tage
  • Wassertemperatur
  • Satellitenkarten
  • Wetterkarte
  • News
  • Widgets
  • user-avatar
    Anmelden

    Stündliche Wetter Hamburg

    Heute, 20 Mai, Sonntag

    Zeit Temperatur Niederschläge Wind Luftdruck Luftfeuchtigkeit
    00:00 +11°C° 0 mm 3 m/S 767 mmHg 88%
    01:00 +10°C° 0 mm 2 m/S 768 mmHg 88%
    02:00 +10°C° 0 mm 2 m/S 768 mmHg 86%
    03:00 +9°C° 0 mm 2 m/S 768 mmHg 84%
    04:00 +9°C° 0 mm 2 m/S 768 mmHg 82%
    05:00 +10°C° 0 mm 3 m/S 768 mmHg 76%
    06:00 +11°C° 0 mm 3 m/S 768 mmHg 70%
    07:00 +12°C° 0 mm 3 m/S 768 mmHg 64%
    08:00 +14°C° 0 mm 4 m/S 768 mmHg 57%
    09:00 +17°C° 0 mm 4 m/S 768 mmHg 50%
    10:00 +18°C° 0 mm 4 m/S 768 mmHg 44%
    11:00 +19°C° 0 mm 4 m/S 768 mmHg 43%
    12:00 +20°C° 0 mm 4 m/S 768 mmHg 43%
    13:00 +21°C° 0 mm 4 m/S 768 mmHg 43%
    14:00 +21°C° 0 mm 4 m/S 768 mmHg 45%
    15:00 +21°C° 0 mm 5 m/S 768 mmHg 48%
    16:00 +21°C° 0 mm 5 m/S 767 mmHg 50%
    17:00 +20°C° 0 mm 4 m/S 767 mmHg 56%
    18:00 +19°C° 0 mm 4 m/S 767 mmHg 61%
    19:00 +17°C° 0 mm 4 m/S 767 mmHg 67%
    20:00 +15°C° 0 mm 4 m/S 767 mmHg 70%
    21:00 +13°C° 0 mm 4 m/S 768 mmHg 74%
    22:00 +12°C° 0 mm 3 m/S 768 mmHg 77%
    23:00 +11°C° 0 mm 3 m/S 768 mmHg 76%

    Morgen, 21 Mai, Montag

    Zeit Temperatur Niederschläge Wind Luftdruck Luftfeuchtigkeit
    00:00 +10°C° 0 mm 3 m/S 768 mmHg 75%
    01:00 +10°C° 0 mm 3 m/S 768 mmHg 74%
    02:00 +9°C° 0 mm 3 m/S 768 mmHg 76%
    03:00 +9°C° 0 mm 3 m/S 767 mmHg 77%
    04:00 +9°C° 0 mm 3 m/S 767 mmHg 78%
    05:00 +10°C° 0 mm 3 m/S 767 mmHg 77%
    06:00 +12°C° 0 mm 4 m/S 767 mmHg 75%
    07:00 +14°C° 0 mm 4 m/S 767 mmHg 73%
    08:00 +15°C° 0 mm 4 m/S 766 mmHg 67%
    09:00 +17°C° 0 mm 5 m/S 766 mmHg 62%
    10:00 +20°C° 0 mm 6 m/S 766 mmHg 56%
    11:00 +21°C° 0 mm 6 m/S 765 mmHg 55%
    12:00 +21°C° 0 mm 6 m/S 765 mmHg 53%
    13:00 +22°C° 0 mm 6 m/S 765 mmHg 51%
    14:00 +22°C° 0 mm 6 m/S 764 mmHg 52%
    15:00 +22°C° 0 mm 6 m/S 764 mmHg 54%
    16:00 +22°C° 0 mm 6 m/S 763 mmHg 56%
    17:00 +21°C° 0 mm 5 m/S 763 mmHg 60%
    18:00 +20°C° 0 mm 5 m/S 763 mmHg 63%
    19:00 +19°C° 0 mm 5 m/S 762 mmHg 67%
    20:00 +18°C° 0 mm 4 m/S 763 mmHg 69%
    21:00 +15°C° 0 mm 4 m/S 763 mmHg 71%
    22:00 +14°C° 0 mm 4 m/S 763 mmHg 73%
    23:00 +13°C° 0 mm 4 m/S 763 mmHg 75%

    übermorgen, 22 Mai, Dienstag

    Zeit Temperatur Niederschläge Wind Luftdruck Luftfeuchtigkeit
    00:00 +13°C° 0 mm 4 m/S 762 mmHg 77%
    01:00 +12°C° 0 mm 3 m/S 762 mmHg 78%
    02:00 +12°C° 0 mm 3 m/S 762 mmHg 81%
    03:00 +11°C° 0 mm 3 m/S 762 mmHg 84%
    04:00 +10°C° 0 mm 3 m/S 762 mmHg 86%
    05:00 +12°C° 0 mm 3 m/S 762 mmHg 82%
    06:00 +13°C° 0 mm 3 m/S 762 mmHg 78%
    07:00 +14°C° 0 mm 4 m/S 762 mmHg 74%
    08:00 +17°C° 0 mm 4 m/S 762 mmHg 67%
    09:00 +19°C° 0 mm 4 m/S 762 mmHg 60%
    10:00 +21°C° 0 mm 5 m/S 762 mmHg 54%
    11:00 +21°C° 0 mm 4 m/S 762 mmHg 52%
    12:00 +22°C° 0 mm 4 m/S 762 mmHg 51%
    13:00 +22°C° 0 mm 4 m/S 761 mmHg 49%
    14:00 +22°C° 0 mm 4 m/S 761 mmHg 51%
    15:00 +22°C° 0 mm 4 m/S 761 mmHg 53%
    16:00 +22°C° 0 mm 4 m/S 761 mmHg 55%
    17:00 +21°C° 0 mm 4 m/S 762 mmHg 61%
    18:00 +20°C° 0 mm 4 m/S 762 mmHg 67%
    19:00 +18°C° 0 mm 4 m/S 762 mmHg 72%
    20:00 +17°C° 0 mm 3 m/S 763 mmHg 78%
    21:00 +14°C° 0 mm 3 m/S 763 mmHg 83%
    22:00 +12°C° 0 mm 3 m/S 763 mmHg 88%
    23:00 +12°C° 0 mm 3 m/S 764 mmHg 90%

    23 Mai, Mittwoch

    Zeit Temperatur Niederschläge Wind Luftdruck Luftfeuchtigkeit
    00:00 +11°C° 0 mm 3 m/S 764 mmHg 91%
    01:00 +10°C° 0 mm 2 m/S 764 mmHg 93%
    02:00 +10°C° 0 mm 2 m/S 765 mmHg 93%
    03:00 +9°C° 0 mm 2 m/S 765 mmHg 93%
    04:00 +9°C° 0 mm 2 m/S 765 mmHg 93%
    05:00 +12°C° 0 mm 2 m/S 766 mmHg 88%
    06:00 +13°C° 0 mm 2 m/S 766 mmHg 82%
    07:00 +15°C° 0 mm 2 m/S 766 mmHg 77%
    08:00 +17°C° 0 mm 3 m/S 767 mmHg 70%
    09:00 +18°C° 0 mm 3 m/S 767 mmHg 63%
    10:00 +20°C° 0 mm 4 m/S 767 mmHg 56%
    11:00 +21°C° 0 mm 4 m/S 767 mmHg 54%
    12:00 +22°C° 0 mm 4 m/S 767 mmHg 51%
    13:00 +23°C° 0 mm 5 m/S 767 mmHg 49%
    14:00 +22°C° 0 mm 5 m/S 767 mmHg 50%
    15:00 +22°C° 0 mm 5 m/S 767 mmHg 51%
    16:00 +22°C° 0 mm 5 m/S 767 mmHg 52%
    17:00 +21°C° 0 mm 4 m/S 767 mmHg 58%
    18:00 +20°C° 0 mm 4 m/S 767 mmHg 63%
    19:00 +19°C° 0 mm 3 m/S 767 mmHg 69%
    20:00 +17°C° 0 mm 3 m/S 768 mmHg 74%
    21:00 +16°C° 0 mm 3 m/S 768 mmHg 78%
    22:00 +13°C° 0 mm 3 m/S 768 mmHg 83%
    23:00 +12°C° 0 mm 3 m/S 768 mmHg 83%

    24 Mai, Donnerstag

    Zeit Temperatur Niederschläge Wind Luftdruck Luftfeuchtigkeit
    00:00 +12°C° 0 mm 3 m/S 769 mmHg 84%
    01:00 +12°C° 0 mm 2 m/S 769 mmHg 84%
    02:00 +10°C° 0 mm 2 m/S 769 mmHg 83%
    03:00 +10°C° 0 mm 2 m/S 769 mmHg 82%
    04:00 +10°C° 0 mm 2 m/S 769 mmHg 82%
    05:00 +11°C° 0 mm 3 m/S 769 mmHg 77%
    06:00 +13°C° 0 mm 3 m/S 769 mmHg 72%
    07:00 +14°C° 0 mm 3 m/S 769 mmHg 68%
    08:00 +17°C° 0 mm 4 m/S 770 mmHg 63%
    09:00 +19°C° 0 mm 4 m/S 770 mmHg 58%
    10:00 +21°C° 0 mm 5 m/S 770 mmHg 53%
    11:00 +22°C° 0 mm 5 m/S 770 mmHg 52%
    12:00 +22°C° 0 mm 5 m/S 770 mmHg 52%
    13:00 +23°C° 0 mm 6 m/S 770 mmHg 51%
    14:00 +22°C° 0 mm 6 m/S 769 mmHg 51%
    15:00 +22°C° 0 mm 6 m/S 769 mmHg 51%
    16:00 +22°C° 0 mm 7 m/S 769 mmHg 52%
    17:00 +20°C° 0 mm 6 m/S 769 mmHg 52%
    18:00 +19°C° 0 mm 5 m/S 769 mmHg 52%
    19:00 +16°C° 0 mm 5 m/S 769 mmHg 52%
    20:00 +14°C° 0 mm 5 m/S 769 mmHg 59%
    21:00 +13°C° 0 mm 4 m/S 770 mmHg 66%
    22:00 +11°C° 0 mm 4 m/S 770 mmHg 72%
    23:00 +11°C° 0 mm 4 m/S 770 mmHg 76%

    25 Mai, Freitag

    Zeit Temperatur Niederschläge Wind Luftdruck Luftfeuchtigkeit
    00:00 +11°C° 0 mm 4 m/S 770 mmHg 79%
    01:00 +10°C° 0 mm 4 m/S 770 mmHg 83%
    02:00 +10°C° 0 mm 4 m/S 770 mmHg 81%
    03:00 +8°C° 0 mm 4 m/S 770 mmHg 80%
    04:00 +8°C° 0 mm 4 m/S 770 mmHg 78%
    05:00 +9°C° 0 mm 5 m/S 770 mmHg 75%
    06:00 +10°C° 0 mm 5 m/S 770 mmHg 72%
    07:00 +11°C° 0 mm 6 m/S 770 mmHg 69%
    08:00 +14°C° 0 mm 6 m/S 770 mmHg 66%
    09:00 +15°C° 0 mm 6 m/S 770 mmHg 62%
    10:00 +16°C° 0 mm 6 m/S 769 mmHg 58%
    11:00 +17°C° 0 mm 7 m/S 769 mmHg 58%
    12:00 +17°C° 0 mm 7 m/S 769 mmHg 58%
    13:00 +18°C° 0 mm 7 m/S 769 mmHg 57%
    14:00 +17°C° 0 mm 7 m/S 768 mmHg 61%
    15:00 +17°C° 0 mm 7 m/S 768 mmHg 64%
    16:00 +16°C° 0 mm 7 m/S 768 mmHg 68%
    17:00 +16°C° 0 mm 6 m/S 768 mmHg 69%
    18:00 +15°C° 0 mm 6 m/S 768 mmHg 70%
    19:00 +14°C° 0 mm 6 m/S 768 mmHg 71%
    20:00 +13°C° 0 mm 5 m/S 768 mmHg 74%
    21:00 +12°C° 0 mm 5 m/S 769 mmHg 77%
    22:00 +10°C° 0 mm 4 m/S 769 mmHg 81%
    23:00 +10°C° 0 mm 4 m/S 769 mmHg 83%
    Mehr zeigen